Weather History for KHBR - April, 2013

Change the Weather History Date:

Tuesday, April 30, 2013

  Actual Average Record
Temperature  
Mean Temperature 74 °F -  
Max Temperature 88 °F 73 °F 88 °F (2013)
Min Temperature 61 °F 49 °F 37 °F (1998)
Cooling Degree Days 9    
Growing Degree Days 24 (Base 50)    
Moisture  
Dew Point 57 °F    
Average Humidity 59    
Maximum Humidity 87    
Minimum Humidity 32    
Precipitation  
Precipitation 0.00 in - - ()
Sea Level Pressure  
Sea Level Pressure 29.67 in    
Wind  
Wind Speed 19 mph (South)    
Max Wind Speed 26 mph    
Max Gust Speed 38 mph    
Visibility 10 miles    
Events      
Averages and records for this station are not official NWS values.
T = Trace of Precipitation, MM = Missing Value Source: NWS Daily Summary

Daily Weather History Graph

Daily Weather History Graph

Search for Another Location

Airport or City:

Trip Planner

Search our weather history database for the weather conditions in past years. The results will help you decide how hot, cold, wet, or windy it might be!

Date:

Astronomy

Apr. 30, 2013 Rise Set
Actual Time 6:46 AM CDT 8:21 PM CDT
Civil Twilight 6:19 AM CDT 8:48 PM CDT
Nautical Twilight 5:46 AM CDT 9:20 PM CDT
Astronomical Twilight 5:12 AM CDT 9:54 PM CDT
Moon 12:42 AM CDT (4/30) 11:18 AM CDT (4/30)
Length of Visible Light 14h 29m
Length of Day
13h 34m
Waning Gibbous, 70% of the Moon is Illuminated
Apr 30
Waning Gibbous
May 2
Last Quarter
May 9
New
May 17
First Quarter
May 24
Full

Hourly Weather History & Observations

Time (CDT) Temp. Heat Index Dew Point Humidity Pressure Visibility Wind Dir Wind Speed Gust Speed Precip Events Conditions
12:53 AM 70.0 °F - 57.0 °F 63% 29.68 in 10.0 mi South 23.0 mph 38.0 mph N/A   Clear
1:53 AM 68.0 °F - 57.9 °F 70% 29.68 in 10.0 mi South 19.6 mph - N/A   Clear
2:53 AM 66.9 °F - 59.0 °F 76% 29.68 in 10.0 mi South 18.4 mph - N/A   Clear
3:53 AM 64.9 °F - 59.0 °F 81% 29.67 in 10.0 mi South 18.4 mph - N/A   Clear
4:53 AM 64.0 °F - 57.9 °F 80% 29.67 in 10.0 mi South 17.3 mph - N/A   Clear
5:53 AM 61.0 °F - 57.0 °F 87% 29.68 in 10.0 mi South 11.5 mph - N/A   Clear
6:53 AM 61.0 °F - 57.0 °F 87% 29.70 in 10.0 mi South 10.4 mph - N/A   Clear
7:53 AM 63.0 °F - 57.0 °F 81% 29.71 in 10.0 mi South 13.8 mph - N/A   Clear
8:53 AM 66.9 °F - 57.9 °F 73% 29.70 in 10.0 mi South 19.6 mph - N/A   Clear
9:53 AM 71.1 °F - 60.1 °F 68% 29.70 in 10.0 mi South 19.6 mph 26.5 mph N/A   Clear
10:53 AM 75.0 °F - 61.0 °F 62% 29.69 in 10.0 mi SSW 19.6 mph 27.6 mph N/A   Clear
11:53 AM 80.1 °F 80.9 °F 60.1 °F 50% 29.68 in 10.0 mi South 19.6 mph 28.8 mph N/A   Clear
12:53 PM 82.9 °F 82.6 °F 57.9 °F 42% 29.65 in 10.0 mi SSW 23.0 mph 29.9 mph N/A   Clear
1:53 PM 84.9 °F 83.9 °F 57.0 °F 38% 29.64 in 10.0 mi South 23.0 mph 36.8 mph N/A   Clear
2:53 PM 86.0 °F 84.2 °F 54.0 °F 33% 29.63 in 10.0 mi South 26.5 mph 35.7 mph N/A   Clear
3:53 PM 87.1 °F 85.1 °F 54.0 °F 32% 29.63 in 10.0 mi South 21.9 mph 36.8 mph N/A   Clear
4:53 PM 87.1 °F 85.3 °F 55.0 °F 33% 29.62 in 10.0 mi SSE 17.3 mph 28.8 mph N/A   Clear
5:53 PM 84.9 °F 83.3 °F 54.0 °F 34% 29.61 in 10.0 mi SSE 24.2 mph 31.1 mph N/A   Clear
6:53 PM 82.9 °F 81.9 °F 54.0 °F 37% 29.61 in 10.0 mi SSE 19.6 mph 28.8 mph N/A   Clear
7:53 PM 78.1 °F - 59.0 °F 52% 29.63 in 10.0 mi SSE 20.7 mph 29.9 mph N/A   Clear
8:53 PM 73.9 °F - 57.0 °F 55% 29.65 in 10.0 mi SSE 19.6 mph 26.5 mph N/A   Clear
9:53 PM 72.0 °F - 55.9 °F 57% 29.68 in 10.0 mi SSE 17.3 mph 27.6 mph N/A   Clear
10:53 PM 70.0 °F - 57.9 °F 65% 29.69 in 10.0 mi SSE 17.3 mph 26.5 mph N/A   Clear
11:53 PM 69.1 °F - 59.0 °F 70% 29.69 in 10.0 mi SSE 23.0 mph 29.9 mph N/A   Clear